Location: Fort Worth, Tx
(32.7431°N, 97.3695°W)
Time: 11:32:36
(UTC-04:00)

Explorer 11/Cluster Stage 4 - Pass Details

Date: 02 March 2024
Orbit: 465 x 1219 km, 28.8° (Epoch: 24 April)

Event Time Altitude Azimuth Distance (km) Brightness Sun altitude
Exits shadow 05:03:01 17° 151° (SSE) 2,417 9.1 -36.7°
Drops below altitude 10° 05:04:37 10° 142° (SE) 2,844 9.6 -36.4°
Sets 05:07:24 0° 133° (SE) 3,686 10.4 -35.8°
